Terminal Aerodrome Forecast
Issued by NWS

Home | Current Version | Previous Version | Text Only | Print | Product List | Glossary On
Versions: 1 2 3 4 5 6 7 8 9 10 11 12 13 14 15 16 17 18 19 20 21 22 23 24 25 26 27 28 29 30 31 32 33 34
000
FTAK31 PAFA 282231 AAA
TAFAQT
TAF AMD
PAQT 282231Z 2823/2918 10017KT 5SM BLSN BR SCT003 OVC100
     FM290400 15018KT 6SM BLSN BR OVC200
     FM290900 20014KT 6SM BR OVC200=

USA.gov is the U.S. government's official web portal to all federal, state and local government web resources and services.